Other Public Products
Issued by NWS Grand Forks, ND

Home | Current Version | Previous Version | Text Only | Print | Product List | Glossary On
Versions: 1 2 3 4 5 6 7 8 9 10 11 12 13 14 15 16 17 18 19 20 21 22 23 24 25 26 27 28 29 30 31 32 33 34 35 36 37 38 39 40 41 42 43 44 45 46 47 48 49 50
000
FPUS83 KFGF 300210
OPUFGF
PRAIRIE TO PINES WEATHER ROUNDUP
NATIONAL WEATHER SERVICE EASTERN NORTH DAKOTA/GRAND FORKS ND
900 PM CDT FRI JUL 29 2016

 **SATELLITE DATA USED TO AUGMENT SKY COVER AT AUTOMATED STATIONS**
 *****  WEATHER ACROSS EASTERN NORTH DAKOTA  *****

CITY           SKY/WX    TMP DP  RH WIND       PRES   REMARKS
GRAND FORKS    PTCLDY    75  56  51 E5        29.98R
GRAND FORKS AF PTCLDY    73  55  54 S2        29.99S
GRAND CITY NWS NOT AVBL
BUXTON           N/A     74  60  63 CALM        N/A
DEVILS LAKE    CLOUDY    68  61  78 SW3       30.00S
FARGO          CLEAR     72  62  71 CALM      29.99S
WAHPETON ARPT  CLEAR     66  61  82 SE6       30.01S
$$

 *****  WEATHER ACROSS CENTRAL AND WESTERN NORTH DAKOTA  *****

CITY           SKY/WX    TMP DP  RH WIND       PRES   REMARKS
JAMESTOWN      MOCLDY    69  63  81 SE5       30.00R
BISMARCK       PTCLDY    75  62  64 S8        29.98R
MINOT          CLOUDY    78  60  53 SE3       29.96S
MINOT AFB      CLEAR     73  61  65 NW2       29.94F
GARRISON         N/A     71  62  73 E3        29.97S
WILLISTON      CLEAR     77  50  38 E6        29.96F
DICKINSON      CLEAR     70  59  68 E8        29.96S
HETTINGER      PTCLDY    78  52  40 E9        29.99R
$$

 *****  OTHER OBSERVATIONS NORTHEAST NORTH DAKOTA  *****

CITY           SKY/WX    TMP DP  RH WIND       PRES   REMARKS
WALHALLA       NOT AVBL
LANGDON        FAIR      66  61  82 SE6       30.00S
CAVALIER       FAIR      72  55  56 SE5       29.98S
GRAFTON        FAIR      73  55  53 CALM      30.00S
CANDO          NOT AVBL
FORT TOTTEN      N/A     67  59  74 CALM      29.95S
ROLLA          FAIR      68  61  77 S6        30.00S
RUGBY          NOT AVBL
 ***** THE ABOVE OBSERVATIONS ARE NON NWS ARE NOT QUALITY
        CONTROLLED AND MAY MIS-REPORT RAIN FOR SNOW...
$$

 *****  OTHER OBSERVATIONS SOUTHEAST NORTH DAKOTA *****

CITY           SKY/WX    TMP DP  RH WIND       PRES   REMARKS
COOPERSTOWN    NOT AVBL
VALLEY CITY    FAIR      68  68 100 SE6       30.03S
OAKES            N/A    N/A N/A N/A MISG        N/A
GWINNER        FAIR      70  64  83 S5        30.01S
SHEYENNE NWR     N/A     70  61  74 SE3       29.95S
BUFFALO          N/A     70  65  83 CALM        N/A
WYNDMERE       NOT AVBL
 ***** THE ABOVE OBSERVATIONS ARE NON NWS ARE NOT QUALITY
       CONTROLLED AND MAY MIS-REPORT RAIN FOR SNOW...
$$

  *****  WEATHER ACROSS NORTHERN MINNESOTA  *****

CITY           SKY/WX    TMP DP  RH WIND       PRES   REMARKS
FLAG ISLAND    PTCLDY    73  57  56 CALM      29.99S
WARROAD        NOT AVBL
ROSEAU         CLEAR     72  64  78 CALM      30.00R
HALLOCK        CLEAR     72  61  68 CALM      29.98S
THF RVR FALLS  PTCLDY    69  59  70 W6        30.01S
HALSTAD          N/A     73  61  65 CALM        N/A
FOSSTON        PTCLDY    66  55  68 CALM      30.02R
BAUDETTE       CLEAR     70  55  59 S6        30.00S
WASKISH        PTCLDY    66  61  82 CALM      30.01S HAZE
CROOKSTON      CLEAR     73  54  49 CALM      30.00S
$$
  *****  WEATHER ACROSS CENTRAL AND WEST MINNESOTA  *****

CITY           SKY/WX    TMP DP  RH WIND       PRES   REMARKS
BEMIDJI        PTCLDY    70  59  69 SE6       30.02S
PARK RAPIDS    PTCLDY    70  61  73 S6        30.03S
WADENA         CLOUDY    66  63  88 S3        30.03S
DETROIT LAKES  PTCLDY    72  63  73 SW6       30.03S
MOORHEAD       CLEAR     72  64  78 CALM      30.01R
FERGUS FALLS   CLEAR     70  63  78 CALM      30.03R
ELBOW LAKE     FAIR      68  64  85 E3        30.03R
MORRIS MN      CLEAR     70  63  78 S3        30.03R
STAPLES        PTCLDY    70  57  64 CALM      30.04R
WHEATON        PTCLDY    70  64  83 E6        30.03R
$$
  *****  WEATHER ELSEWHERE ACROSS MINNESOTA  *****

CITY           SKY/WX    TMP DP  RH WIND       PRES   REMARKS
DULUTH         CLEAR     58  51  78 E5        30.07S
INTRNTL FALLS  MOCLDY    68  58  70 SE3       30.02R
ELY            CLEAR     64  52  63 SE3       30.07R
CLOQUET        CLEAR     63  52  67 E5        30.06S
BRAINERD       MOCLDY    67  61  81 S3        30.04S
HIBBING        CLEAR     64  53  67 SE6       30.05R
ALEXANDRIA     CLOUDY    71  58  63 S5        30.05S
SAINT CLOUD    CLEAR     65  59  81 CALM      30.04R
MINNEAPOLIS    PTCLDY    74  52  46 CALM      30.03R
$$

  *****  WEATHER ACROSS SOUTH DAKOTA  *****

CITY           SKY/WX    TMP DP  RH WIND       PRES   REMARKS
SIOUX FALLS    PTCLDY    70  56  61 E8        30.04R
BROOKINGS      CLEAR     70  58  65 SE7       30.05R
WATERTOWN      CLEAR     71  57  61 S6        30.04R
HURON          CLEAR     74  54  49 SE8       30.00R
SISSETON         N/A     70  61  73 S6        30.01R
ABERDEEN       CLOUDY    73  63  70 SE6       29.99
MITCHELL       PTCLDY    73  56  54 SE8       30.03R
PIERRE         MOCLDY    76  55  48 S14       29.96F
MOBRIDGE       PTCLDY    77  59  53 SW5       29.96S
RAPID CITY     CLEAR     73  56  54 SW8       30.02R
$$

  *****  SOME WEATHER IN NEARBY STATES *****

CITY           SKY/WX    TMP DP  RH WIND       PRES   REMARKS
GLASGOW MT     CLEAR     76  57  51 E6        29.94S
GREAT FALLS MT CLEAR     83  45  26 E10       29.96F
CHEYENNE WY    CLOUDY    67  53  61 S7        30.15F
SCOTTSBLUFF NE CLOUDY    63  32  31 SE10      30.06F
OMAHA NE       PTCLDY    74  62  66 NE5       30.01R
DES MOINES IA  MOCLDY    70  64  81 NW3       29.98F
DAVENPORT IA   PTCLDY    67  65  93 NE6       29.95S
CHICAGO IL     MOCLDY    71  66  84 E10       29.94S
EAU CLAIRE WI  CLEAR     70  61  73 SE5       30.02R
LA CROSSE WI   CLOUDY    71  66  84 E3        30.01R
$$

  *****  SOME NATIONAL WEATHER *****

CITY           SKY/WX    TMP DP  RH WIND       PRES   REMARKS
LA GUARDIA NY  PTCLDY    80  67  64 S8        29.90R
RALEIGH NC     PTCLDY    80  71  74 CALM      29.95R
ATLANTA GA     PTCLDY    82  71  69 NW6       30.01R
NEW ORLEANS LA PTCLDY    82  73  74 S3        30.00R
OKLAHOMA CITY  PTCLDY    79  67  66 NE6       29.95S
ALBUQUERQUE NM CLOUDY    75  54  47 E14       30.12F
SALT LAKE CITY PTCLDY    98  35  11 N7        29.92S HX  93
LOS ANGELES CA SUNNY     73  65  75 W10       29.77F
BOISE ID       SUNNY     98  36  11 NW8       29.80F HX  93
SEATTLE WA     MOSUNNY   87  56  34 VRB7      29.90F
$$

*** WEATHER ACROSS MANITOBA...SASKATCHEWAN AND ONTARIO ***
                ***ONTARIO***

CITY           SKY/WX    TMP DP  RH WIND       PRES   REMARKS
GERALDTON      PTCLDY    66  52  59 W5        30.06R
THUNDER BAY    PTCLDY    64  52  63 S3        30.06S
SIOUX LOOKOUT  MOCLDY    59  55  88 CALM      30.02S
TORONTO        MOCLDY    73  55  53 N9        29.99R
BIG TROUT LK   CLEAR     63  57  82 VRB2      29.96S
PICKLE LAKE    PTCLDY    73  48  40 SW7       30.00S
DRYDEN         CLEAR     72  52  49 E2        30.02S
KENORA         MOCLDY    72  54  53 S2        30.02R
$$
                *** MANITOBA***

CITY           SKY/WX    TMP DP  RH WIND       PRES   REMARKS
BRANDON        MOCLDY    72  57  60 S3        29.96S
DAUPHIN        CLEAR     70  59  68 S5        29.92S
ISLAND LAKE    NOT AVBL
PILOT MOUND      N/A     64  59  82 SE6         N/A
THE PAS        CLOUDY    70  63  78 SE3       29.86S
THOMPSON       CLOUDY    63  63 100 VRB2      29.87F
WINNIPEG       PTCLDY    70  55  60 S5        29.97S
LYNN LAKE      CLOUDY    64  59  82 MISG      29.87F
CHURCHILL      MOCLDY    61  46  59 SE8       30.02S
GILLAM         CLOUDY    63  50  63 E8        29.95S
$$
                ***SASKATCHEWAN***

CITY           SKY/WX    TMP DP  RH WIND       PRES   REMARKS
ESTEVAN        PTCLDY    72  59  64 CALM      29.96S
KINDERSLEY     PTCLDY    75  63  64 S3        29.91F
LLOYDMINSTER   PTCLDY    75  57  53 SW3       29.85F
PRINCE ALBERT  PTCLDY    73  63  68 S3        29.84F
REGINA         MOCLDY    70  63  78 S6        29.92F
YORKTON        PTCLDY    70  63  78 S3        29.90F   C1F1C2F2C3F3C4F4C5F5C6F6C7F7C8F8C9F9CaFaCbFbCcFcCdFdCe!


USA.gov is the U.S. government's official web portal to all federal, state and local government web resources and services.